• In Kazakhstan
  • List of Countries
  • For 7 days
  • Water Temperature
  • Satellite Maps
  • Weather Map
  • News
  • Weather Widgets
  • user-avatar
    Login

    Hourly Weather San Miguel de Tucumán

    Today, 21 November, Wednesday

    Time Temperature Precipitation Wind Pressure Humidity
    00:00 +26°C° 0 mm 2 mps 719 mmHg 73%
    01:00 +26°C° 0 mm 2 mps 718 mmHg 73%
    02:00 +26°C° 0 mm 2 mps 718 mmHg 72%
    03:00 +25°C° 0 mm 2 mps 718 mmHg 71%
    04:00 +25°C° 0 mm 1 mps 717 mmHg 71%
    05:00 +25°C° 0 mm 1 mps 717 mmHg 70%
    06:00 +27°C° 0 mm 2 mps 718 mmHg 65%
    07:00 +28°C° 0 mm 2 mps 718 mmHg 60%
    08:00 +30°C° 0 mm 2 mps 718 mmHg 55%
    09:00 +32°C° 0 mm 2 mps 718 mmHg 51%
    10:00 +34°C° 0 mm 3 mps 718 mmHg 47%
    11:00 +36°C° 0 mm 3 mps 718 mmHg 43%
    12:00 +37°C° 0 mm 3 mps 717 mmHg 42%
    13:00 +37°C° 0 mm 4 mps 717 mmHg 41%
    14:00 +38°C° 0 mm 4 mps 716 mmHg 40%
    15:00 +37°C° 0.1 mm 4 mps 715 mmHg 42%
    16:00 +37°C° 0.1 mm 3 mps 714 mmHg 44%
    17:00 +36°C° 0.1 mm 3 mps 714 mmHg 46%
    18:00 +35°C° 0 mm 3 mps 714 mmHg 52%
    19:00 +33°C° 0 mm 3 mps 714 mmHg 57%
    20:00 +30°C° 0 mm 2 mps 715 mmHg 63%
    21:00 +30°C° 0 mm 2 mps 715 mmHg 64%
    22:00 +29°C° 0 mm 2 mps 715 mmHg 65%
    23:00 +29°C° 0 mm 2 mps 716 mmHg 66%

    Tomorrow, 22 November, Thursday

    Time Temperature Precipitation Wind Pressure Humidity
    00:00 +28°C° 0 mm 2 mps 715 mmHg 65%
    01:00 +28°C° 0 mm 2 mps 715 mmHg 65%
    02:00 +28°C° 0 mm 2 mps 714 mmHg 65%
    03:00 +27°C° 0 mm 2 mps 714 mmHg 64%
    04:00 +27°C° 0 mm 2 mps 714 mmHg 64%
    05:00 +27°C° 0 mm 2 mps 714 mmHg 63%
    06:00 +29°C° 0 mm 2 mps 714 mmHg 59%
    07:00 +30°C° 0 mm 2 mps 715 mmHg 56%
    08:00 +32°C° 0 mm 2 mps 716 mmHg 52%
    09:00 +35°C° 0 mm 2 mps 716 mmHg 47%
    10:00 +37°C° 0 mm 2 mps 716 mmHg 42%
    11:00 +38°C° 0 mm 2 mps 716 mmHg 37%
    12:00 +38°C° 0 mm 2 mps 716 mmHg 37%
    13:00 +38°C° 0 mm 2 mps 715 mmHg 37%
    14:00 +38°C° 0 mm 3 mps 715 mmHg 37%
    15:00 +38°C° 0.1 mm 3 mps 715 mmHg 39%
    16:00 +37°C° 0.1 mm 3 mps 714 mmHg 41%
    17:00 +36°C° 0.1 mm 3 mps 714 mmHg 43%
    18:00 +33°C° 1.2 mm 3 mps 715 mmHg 57%
    19:00 +29°C° 1.2 mm 4 mps 716 mmHg 71%
    20:00 +26°C° 1.2 mm 5 mps 717 mmHg 86%
    21:00 +25°C° 0.7 mm 4 mps 718 mmHg 87%
    22:00 +25°C° 0.7 mm 3 mps 719 mmHg 88%
    23:00 +25°C° 0.7 mm 3 mps 720 mmHg 89%

    Day after tomorrow, 23 November, Friday

    Time Temperature Precipitation Wind Pressure Humidity
    00:00 +24°C° 0.9 mm 3 mps 720 mmHg 90%
    01:00 +24°C° 0.9 mm 3 mps 719 mmHg 90%
    02:00 +24°C° 0.9 mm 3 mps 719 mmHg 90%
    03:00 +22°C° 0.3 mm 3 mps 719 mmHg 91%
    04:00 +23°C° 0.3 mm 2 mps 719 mmHg 91%
    05:00 +23°C° 0.3 mm 2 mps 719 mmHg 92%
    06:00 +24°C° 0.1 mm 2 mps 720 mmHg 89%
    07:00 +24°C° 0.1 mm 2 mps 720 mmHg 87%
    08:00 +25°C° 0.1 mm 2 mps 720 mmHg 84%
    09:00 +25°C° 0.1 mm 2 mps 720 mmHg 82%
    10:00 +25°C° 0.1 mm 2 mps 720 mmHg 80%
    11:00 +26°C° 0.1 mm 2 mps 720 mmHg 78%
    12:00 +27°C° 0.1 mm 2 mps 719 mmHg 73%
    13:00 +28°C° 0.1 mm 2 mps 719 mmHg 68%
    14:00 +30°C° 0.1 mm 2 mps 718 mmHg 62%
    15:00 +29°C° 0.1 mm 2 mps 717 mmHg 64%
    16:00 +29°C° 0.1 mm 2 mps 717 mmHg 66%
    17:00 +28°C° 0.1 mm 2 mps 716 mmHg 68%
    18:00 +27°C° 0.1 mm 1 mps 717 mmHg 72%
    19:00 +26°C° 0.1 mm 1 mps 718 mmHg 76%
    20:00 +26°C° 0.1 mm 1 mps 718 mmHg 81%
    21:00 +25°C° 0.1 mm 1 mps 719 mmHg 84%
    22:00 +24°C° 0.1 mm 1 mps 719 mmHg 86%
    23:00 +24°C° 0.1 mm 1 mps 719 mmHg 89%

    24 November, Saturday

    Time Temperature Precipitation Wind Pressure Humidity
    00:00 +24°C° 0.1 mm 1 mps 719 mmHg 90%
    01:00 +23°C° 0.1 mm 1 mps 719 mmHg 92%
    02:00 +23°C° 0.1 mm 1 mps 719 mmHg 93%
    03:00 +23°C° 0.1 mm 1 mps 719 mmHg 93%
    04:00 +23°C° 0.1 mm 1 mps 719 mmHg 93%
    05:00 +23°C° 0.1 mm 1 mps 719 mmHg 93%
    06:00 +23°C° 0 mm 1 mps 719 mmHg 91%
    07:00 +24°C° 0 mm 1 mps 720 mmHg 88%
    08:00 +24°C° 0 mm 1 mps 720 mmHg 85%
    09:00 +25°C° 0 mm 1 mps 720 mmHg 82%
    10:00 +26°C° 0 mm 2 mps 720 mmHg 78%
    11:00 +27°C° 0 mm 2 mps 719 mmHg 75%
    12:00 +28°C° 0.1 mm 2 mps 719 mmHg 71%
    13:00 +28°C° 0.1 mm 2 mps 718 mmHg 68%
    14:00 +29°C° 0.1 mm 2 mps 717 mmHg 65%
    15:00 +29°C° 0.1 mm 2 mps 717 mmHg 65%
    16:00 +29°C° 0.1 mm 2 mps 717 mmHg 65%
    17:00 +29°C° 0.1 mm 2 mps 716 mmHg 65%
    18:00 +28°C° 0.1 mm 1 mps 717 mmHg 70%
    19:00 +27°C° 0.1 mm 1 mps 717 mmHg 76%
    20:00 +25°C° 0.1 mm 1 mps 718 mmHg 82%
    21:00 +25°C° 0.1 mm 1 mps 718 mmHg 84%
    22:00 +25°C° 0.1 mm 1 mps 719 mmHg 85%
    23:00 +24°C° 0.1 mm 1 mps 719 mmHg 86%

    25 November, Sunday

    Time Temperature Precipitation Wind Pressure Humidity
    00:00 +22°C° 0.1 mm 0 mps 719 mmHg 87%
    01:00 +22°C° 0.1 mm 0 mps 719 mmHg 88%
    02:00 +22°C° 0.1 mm 0 mps 718 mmHg 89%
    03:00 +24°C° 0.1 mm 1 mps 718 mmHg 90%
    04:00 +24°C° 0.1 mm 1 mps 718 mmHg 91%
    05:00 +23°C° 0.1 mm 1 mps 718 mmHg 92%
    06:00 +24°C° 0.1 mm 1 mps 719 mmHg 89%
    07:00 +25°C° 0.1 mm 1 mps 719 mmHg 86%
    08:00 +26°C° 0.1 mm 1 mps 720 mmHg 83%
    09:00 +27°C° 0.4 mm 1 mps 720 mmHg 79%
    10:00 +28°C° 0.4 mm 2 mps 720 mmHg 76%
    11:00 +29°C° 0.4 mm 2 mps 719 mmHg 72%
    12:00 +29°C° 1.1 mm 2 mps 719 mmHg 70%
    13:00 +30°C° 1.1 mm 2 mps 718 mmHg 68%
    14:00 +30°C° 1.1 mm 2 mps 717 mmHg 66%
    15:00 +30°C° 1.5 mm 2 mps 717 mmHg 68%
    16:00 +30°C° 1.5 mm 2 mps 717 mmHg 70%
    17:00 +29°C° 1.5 mm 1 mps 716 mmHg 72%
    18:00 +28°C° 2.2 mm 1 mps 717 mmHg 78%
    19:00 +26°C° 2.2 mm 1 mps 718 mmHg 84%
    20:00 +25°C° 2.2 mm 1 mps 718 mmHg 90%
    21:00 +25°C° 1.1 mm 1 mps 718 mmHg 90%
    22:00 +24°C° 1.1 mm 1 mps 719 mmHg 91%
    23:00 +24°C° 1.1 mm 1 mps 719 mmHg 91%

    26 November, Monday

    Time Temperature Precipitation Wind Pressure Humidity
    00:00 +24°C° 0.7 mm 1 mps 718 mmHg 92%
    01:00 +24°C° 0.7 mm 1 mps 718 mmHg 93%
    02:00 +23°C° 0.7 mm 1 mps 718 mmHg 93%
    03:00 +23°C° 0.5 mm 1 mps 718 mmHg 93%
    04:00 +21°C° 0.5 mm 0 mps 718 mmHg 93%
    05:00 +21°C° 0.5 mm 0 mps 718 mmHg 93%
    06:00 +24°C° 0.2 mm 1 mps 718 mmHg 89%
    07:00 +25°C° 0.2 mm 1 mps 719 mmHg 85%
    08:00 +26°C° 0.2 mm 1 mps 719 mmHg 81%
    09:00 +28°C° 0.7 mm 2 mps 719 mmHg 75%
    10:00 +29°C° 0.7 mm 2 mps 718 mmHg 69%
    11:00 +31°C° 0.7 mm 2 mps 718 mmHg 63%
    12:00 +31°C° 2.1 mm 2 mps 717 mmHg 65%
    13:00 +30°C° 2.1 mm 2 mps 716 mmHg 68%
    14:00 +30°C° 2.1 mm 2 mps 716 mmHg 70%
    15:00 +30°C° 3.4 mm 2 mps 716 mmHg 74%
    16:00 +29°C° 3.4 mm 2 mps 715 mmHg 78%
    17:00 +28°C° 3.4 mm 2 mps 715 mmHg 82%
    18:00 +27°C° 2.8 mm 2 mps 716 mmHg 85%
    19:00 +26°C° 2.8 mm 2 mps 717 mmHg 87%
    20:00 +25°C° 2.8 mm 1 mps 717 mmHg 90%
    21:00 +25°C° 2.3 mm 1 mps 717 mmHg 91%
    22:00 +24°C° 2.3 mm 1 mps 718 mmHg 91%
    23:00 +24°C° 2.3 mm 1 mps 718 mmHg 92%
    Show more